Regional Weather Roundup
Issued by NWS Upton, NY

Current Version | Previous Version | Graphics & Text | Print | Product List | Glossary Off
Versions: 1 2 3 4 5 6 7 8 9 10 11 12 13 14 15 16 17 18 19 20 21 22 23 24 25 26 27

000
ASUS41 KOKX 130308
RWROKX

REGIONAL WEATHER ROUNDUP
NATIONAL WEATHER SERVICE NEW YORK NY
1000 PM EST TUE DEC 12 2017

NOTE: "FAIR" INDICATES FEW OR NO CLOUDS BELOW 12,000 FEET WITH NO
SIGNIFICANT WEATHER AND/OR OBSTRUCTIONS TO VISIBILITY.

NYZ071-072-176-178-NJZ106-104-130400-
NEW YORK CITY METRO AREA

CITY           SKY/WX    TMP DP  RH WIND       PRES   REMARKS
Central Park   PTCLDY    33  20  58 VRB7      29.44F WCI  27
Bronx Bot Gard   N/A     32  19  59 N8        29.44R WCI  25
Bronx Lehman C   N/A     32  21  64 NW12G23     N/A  WCI  23
LaGuardia APRT PTCLDY    35  23  61 NW23G31   29.42F WCI  23
Queens College   N/A     34  21  60 NW13        N/A  WCI  25
Kennedy INTL   PTCLDY    34  18  52 NW23G33   29.43F WCI  22
Breezy Point     N/A     34 N/A N/A NW17G28     N/A  WCI  23
Brooklyn Coll    N/A     34  19  55 W20         N/A  WCI  22
Staten Island    N/A     34  19  55 NW12        N/A  WCI  25
Newark/Liberty PTCLDY    34  17  50 NW18G28   29.44F WCI  23
Teterboro      PTCLDY    33  21  61 NW12      29.43F WCI  24
$$

NYZ177-179-078>081-130400-
LONG ISLAND NEW YORK

CITY           SKY/WX    TMP DP  RH WIND       PRES   REMARKS
Jones Beach      N/A     34 N/A N/A NW18G26     N/A  WCI  23
Wantagh          N/A     34  23  64 NW14        N/A  WCI  24
Matinecock PT    N/A     36 N/A N/A NW26        N/A  WCI  23
Farmingdale    PTCLDY    33  21  61 NW14G25   29.42R WCI  23
MacArthur/ISP  MOCLDY    35  23  61 NW17      29.38S WCI  25
Shirley        CLOUDY    36  24  62 NW17G30   29.38S WCI  26
Mt Sinai Harb    N/A    N/A N/A N/A NW14G23     N/A
Westhampton    CLOUDY    37  28  70 NW20G32   29.38F WCI  27
East Hampton   DRIZZLE   39  33  80 NW14G21   29.35F WCI  30
Southold         N/A     37  30  75 N20         N/A  WCI  27
Montauk          N/A     43  35  73 NW13G20   29.35S
$$

NYZ052-065-067-130400-
HUDSON VALLEY

CITY           SKY/WX    TMP DP  RH WIND       PRES   REMARKS
White Plains   PTCLDY    31  19  61 NW16G24   29.39F WCI  20
Larchmont Harb   N/A     32 N/A N/A W22G30      N/A  WCI  19
Croton On Huds   N/A     32 N/A N/A NW18G26     N/A  WCI  20
Somers           N/A     30  19  64 NW13G26     N/A  WCI  20
Brewster         N/A     30  19  64 NW13        N/A  WCI  20
Newburgh       MOCLDY    28  21  74 MISG      29.45S
Montgomery     CLEAR     28  15  58 NW15G26   29.44F WCI  16
Otisville        N/A     27  14  59 NW9G21      N/A  WCI  17
Warwick          N/A     30  18  59 NW14        N/A  WCI  20
Suffern          N/A     30  19  64 NW8         N/A  WCI  23
Poughkeepsie   MOCLDY    30  18  60 W9        29.43F WCI  22
Albany         CLOUDY    26  12  55 W29G40    29.47F WCI  10
$$

NJZ001-105-106-008-010-013-015-019>022-104-130400-
NEW JERSEY

CITY           SKY/WX    TMP DP  RH WIND       PRES   REMARKS
Newark/Liberty PTCLDY    34  17  50 NW18G28   29.44F WCI  23
Teterboro      PTCLDY    33  21  61 NW12      29.43F WCI  24
Caldwell       MOCLDY    31  17  56 NW9G25    29.45F WCI  23
Somerville     CLOUDY    32  17  54 NW21G35   29.46F WCI  20
Linden         CLOUDY    34  19  53 NW10G21   29.45F WCI  26
Perth Amboy      N/A     32 N/A N/A W24G32      N/A  WCI  19
Sussex         MOCLDY    28  13  53 NW12G26   29.47F WCI  18
Andover        NOT AVBL
Trenton        PTCLDY    30  12  47 NW18G29   29.49F WCI  18
Millville      PTCLDY    29  10  45 NW25G39   29.56S WCI  14
Atlantic City  MOCLDY    32  13  45 NW25G41   29.52R WCI  19
Wrightstown    CLEAR     29  13  49 NW18G31   29.48S WCI  17
Toms River     PTCLDY    31  16  54 W18G35    29.50R WCI  19
Belmar         CLEAR     32  17  54 W18G30    29.47R WCI  20
$$

PAZ047>061-062-071-130400-
EASTERN PENNSYLVANIA

CITY           SKY/WX    TMP DP  RH WIND       PRES   REMARKS
Philadelphia   CLEAR     29   6  38 NW24G37   29.57F WCI  15
Allentown      PTCLDY    26   6  42 W23G38    29.55R WCI  11
Scranton       CLOUDY    23   7  50 NW18G25   29.53F WCI   9
$$

CTZ002-004>006-009-010-012-RIZ004-006-007-MAZ004-011-015-130400-
SOUTHERN NEW ENGLAND
 IN CT

CITY           SKY/WX    TMP DP  RH WIND       PRES   REMARKS
Bradley INTL   MOCLDY    31  21  66 NW10G21   29.42R WCI  22
Hartford       CLOUDY    33  21  61 NW9       29.43R WCI  25
Danbury        PTCLDY    32  22  66 NW10      29.41F WCI  24
Wtrbury/Oxford FLURRIES  29  23  78 NW15G26   29.38R WCI  18
Norwalk Harbor   N/A     32 N/A N/A NW20G25     N/A  WCI  20
Bridgeport     CLOUDY    34  25  69 NW15G22   29.39S WCI  24
Meriden        CLOUDY    33  23  66 NW12      29.41R WCI  24
New Haven      CLOUDY    35  24  64 N14G22    29.38R WCI  26
Chester        CLOUDY    34  27  75 NW17G25   29.35F WCI  23
Groton         CLOUDY    38  29  70 NW16G30   29.35S WCI  29
Wilimantic     CLOUDY    34  26  72 W10G23    29.37R WCI  26

 IN RI

CITY           SKY/WX    TMP DP  RH WIND       PRES   REMARKS
Providence     CLOUDY    38  35  89 NW9       29.32S WCI  31
Block Island   CLOUDY    41  35  79 NW14G22   29.33R
Westerly       CLOUDY    40  36  86 NW14G20   29.35R WCI  32
 IN MA

CITY           SKY/WX    TMP DP  RH WIND       PRES   REMARKS
Boston         MOCLDY    35  33  92 W12       29.27F WCI  27
Worcester      CLOUDY    32  28  85 W22G28    29.27S WCI  19
Westfield      CLOUDY    30  20  66 NW17G24   29.39R WCI  18
Provincetown   CLOUDY    42  40  92 NW12      29.25F
Nantucket      CLOUDY    46  45  96 W15       29.26F
$$

ANZ330-335-338-340-345-350-353-355-130400-
COASTAL MARINE OBSERVATIONS


STATION/POSITION TIME  SKY/WX   TEMP    WIND        PRES    VSBY  WAVE
                                AIR SEA DIR/SP/G                  HT/PER
                 (UTC)          (F)     (DEG/KT/KT) (MB)    (MI)  (FT/S)
NY HARB ENTRANCE 0150            40 53  310/ 27/ 33  995.4          5/ 5
20 S FIRE ISLAND 0150            41 52  310/ 33/ 39  994.4          7/ 5
GREAT SOUTH BAY  0230            36 45  300/ 17/ 23   N/A
HUDSON CANYON    0150            47 57  310/ 25/ 31  994.5          8/ 6
KINGS POINT      0230            35 46  360/ 16/ 25  997.5
EXECUTION ROCKS  0230            36     300/ 19/ 27   N/A
WESTERN LI SOUND NOT AVBL
CENTRAL LI SOUND NOT AVBL
ROBBINS REEF     0230            35     300/ 18/ 23  997.5
$$


>>>>>>>>>>>>>>>>>>>>>>>>>>>> KEY <<<<<<<<<<<<<<<<<<<<<<<<<<<
>                                                          <
>     SKY/WX - Sky Condition/Present Weather               <
>     TMP    - Temperature in Fahrenheit                   <
>     DP     - Dew Point in Fahrenheit                     <
>     RH     - Relative Humidity in Percent                <
>     WIND   - Direction (from) and Speed in MPH           <
>     PRES   - Mean Sea Level Pressure (inches of Hg)      <
>     WCI    - Wind Chill Index                            <
>     VSB    - VISIBILITY IN MILES                         <
>     HX     - HEAT INDEX                                  <
>     TC     - TEMPERATURE IN CELSIUS                      <
>     VRB    - VARIABLE WIND DIRECTION                     <
>                                                          <
>>>>>>>>>>>>>>>>>>>>>>>>>>>> KEY <<<<<<<<<<<<<<<<<<<<<<<<<<<




USA.gov is the U.S. government's official web portal to all federal, state and local government web resources and services.